Location: Adavinekkalam
(16.6301°N, 80.7229°E)
Time: 08:04:48
(UTC+00:00)

CZ-4B R/B - Pass Details

Date: 15 May 2026
Orbit: 807 x 881 km, 98.9° (Epoch: 5 June)

Event Time Altitude Azimuth Distance (km) Brightness Sun altitude
Exits shadow 14:59:46 40° 48° (NE) 1,264 3.9 -26.5°
Drops below altitude 10° 15:04:07 10° 4° (N) 2,526 6.0 -27.4°
Sets 15:06:36 0° 358° (N) 3,459 6.8 -27.9°
